Notices

What's New in latest Release from April 7th, 2021:

- Updated Glossary, including Speed of Maximum Gust, and Total Hourly Precipitation

- Updated national and regional climate services offices contacts and prices information

- Addition of station inventory lists for 1981-2010, 1971-2000, and 1961-1990 Normals.

If you haven't already, please take our survey and provide feedback about our website: https://eccc.sondage-survey.ca/f/LanguageSelection.aspx?s=442ca660-fcf1-47c0-95a9-59707d6fd709

Hourly Data Report for May 10, 2020

MIRAMICHI RCS
NEW BRUNSWICK
Current Station Operator: ECCC - MSC

47°00'34.000" N
65°27'54.000" W
33.00 m
8100989
71744
ACQ

Download Data

Hourly Data (May 2020)
Hourly Data Report for May 10, 2020
TIME
LST
Temp Definition
°C
Dew Point Definition
°C
Rel Hum Definition
%
Precip. Amount Definition
mm

Wind Dir Definition
10's deg

Wind Spd Definition
km/h
Visibility Definition
km
Stn Press Definition
kPa
Hmdx Definition


Wind Chill Definition


Weather Definition


00:00 1.0 0.5 97 LegendMM 27 14   98.33     LegendNANA
01:00 1.6 0.8 95 LegendMM 28 16   98.41     LegendNANA
02:00 2.0 1.0 93 LegendMM 30 23   98.49     LegendNANA
03:00 2.4 0.2 85 LegendMM 30 26   98.61     LegendNANA
04:00 2.1 -0.2 85 LegendMM 28 28   98.73     LegendNANA
05:00 1.8 -0.9 83 LegendMM 28 26   98.89     LegendNANA
06:00 1.4 -1.6 80 LegendMM 27 28   99.05     LegendNANA
07:00 0.9 -3.0 75 LegendMM 27 31   99.17     LegendNANA
08:00 1.1 -4.3 67 LegendMM 27 31   99.30     LegendNANA
09:00 1.5 -5.1 62 LegendMM 28 36   99.38     LegendNANA
10:00 1.9 -4.5 63 LegendMM 28 27   99.43     LegendNANA
11:00 2.3 -5.0 58 LegendMM 27 33   99.44     LegendNANA
12:00 2.4 -5.6 56 LegendMM 27 34   99.47     LegendNANA
13:00 3.3 -5.0 54 LegendMM 27 27   99.48     LegendNANA
14:00 3.8 -4.3 56 LegendMM 26 33   99.51     LegendNANA
15:00 4.1 -4.1 55 LegendMM 26 34   99.53     LegendNANA
16:00 4.8 -3.6 54 LegendMM 26 31   99.53     LegendNANA
17:00 5.4 -3.4 53 LegendMM 25 28   99.55     LegendNANA
18:00 6.0 -3.7 50 LegendMM 26 31   99.56     LegendNANA
19:00 5.8 -3.3 52 LegendMM 26 26   99.61     LegendNANA
20:00 4.3 -2.4 62 LegendMM 24 22   99.66     LegendNANA
21:00 3.3 -2.2 68 LegendMM 24 20   99.71     LegendNANA
22:00 3.0 -2.0 70 LegendMM 23 20   99.74     LegendNANA
23:00 3.0 -1.9 70 LegendMM 23 23   99.76     LegendNANA

Notes on Data Quality.

Legend

  • E = Estimated
  • M = Missing
  • NA = Not Available*
  • [empty] = Indicates an unobserved value
Date modified: